Zurück zum Katalog

FENGYUN 1C DEB

AktivPO
NORAD 37695·DEBRIS·🇨🇳 China

Gestartet May 10, 1999 von Taiyuan Satellite Launch Center

Loading…

Nächste Überflüge (nächste 24 Stunden)

TLE

AlterndSource: Space-Track

Epoche: Sep 3, 2026, 06:43 UTC

1 37695U 99025ELL 26246.28007049  .00000728  00000-0  45378-3 0  9992
2 37695  98.1883 254.7237 0458799 272.2949  96.2706 13.65771539928620

Verfolge FENGYUN 1C DEB in Echtzeit mit AllMySat

Download on the App Store